Tracking 18851 objects as of 24-Nov-2017
HD Live streaming from Space Station
objects crossing your sky now

COSMOS 1305

Track COSMOS 1305 now!
10-day predictions
COSMOS 1305 is classified as:


NORAD ID: 12818
Int'l Code: 1981-088A
Perigee: 988.7 km
Apogee: 13,512.9 km
Inclination: 63.2 °
Period: 263.7 minutes
Semi major axis: 13621 km
RCS: 12.474 m2 (large)
Launch date: September 11, 1981
Source: Commonwealth of Independent States (former USSR) (CIS)
Launch site: PLESETSK MISSILE AND SPACE COMPLEX (PKMTR)
aabbcc
Your satellite tracking list
Your tracking list is empty




NASA's NSSDC Master Catalog

Two Line Element Set (TLE):
1 12818U 81088A   17328.45308068 -.00000005 +00000-0 +00000-0 0  9996
2 12818 063.2346 221.5788 4597099 210.9864 278.6770 05.46074468721991
Source of the keplerian elements: AFSPC